W9IF-4 Weather Reports


Display with metric or nautical units.
time (UTC)temp
F
wind
direction
speed
MPH
gust
MPH
rain 1hr
in
rain 24hr
in
rain mn
in
humidity
%
barometer
mb
20160214055227 55 134 0.0 0.0 0.00 0.00 0.00 1018.3
20160214055127 54 134 0.0 0.0 0.00 0.00 0.00 1018.3
20160214055027 55 134 0.0 0.0 0.00 0.00 0.00 1018.2
20160214054927 55 134 0.0 0.0 0.00 0.00 0.00 1018.3
20160214054827 54 134 0.0 0.0 0.00 0.00 0.00 1018.3
20160214054727 55 134 0.0 0.0 0.00 0.00 0.00 1018.3
20160214054627 55 134 0.0 0.0 0.00 0.00 0.00 1018.4
20160214054527 55 134 0.0 0.0 0.00 0.00 0.00 1018.4
20160214054427 55 134 0.0 0.0 0.00 0.00 0.00 1018.4
20160214054327 55 134 0.0 0.0 0.00 0.00 0.00 1018.3
20160214054227 55 134 0.0 0.0 0.00 0.00 0.00 1018.4
20160214054127 55 134 0.0 0.0 0.00 0.00 0.00 1018.4
20160214054027 56 134 0.0 0.0 0.00 0.00 0.00 1018.5
20160214053927 56 134 0.0 0.0 0.00 0.00 0.00 1018.5
20160214053827 56 134 0.0 0.0 0.00 0.00 0.00 1018.5
20160214053727 56 134 0.0 0.0 0.00 0.00 0.00 1018.5
20160214053627 56 134 0.0 0.0 0.00 0.00 0.00 1018.5
20160214053527 56 134 0.0 0.0 0.00 0.00 0.00 1018.4
20160214053427 56 134 0.0 0.0 0.00 0.00 0.00 1018.5
20160214053328 56 134 0.0 0.0 0.00 0.00 0.00 1018.4
20160214053127 56 134 0.0 0.0 0.00 0.00 0.00 1018.4
20160214053027 56 134 0.0 0.0 0.00 0.00 0.00 1018.3
20160214052927 55 134 0.0 0.0 0.00 0.00 0.00 1018.3
20160214052827 55 134 0.0 0.0 0.00 0.00 0.00 1018.3
20160214052727 55 134 0.0 0.0 0.00 0.00 0.00 1018.3
20160214052627 55 134 0.0 0.0 0.00 0.00 0.00 1018.3
20160214052527 55 134 0.0 0.0 0.00 0.00 0.00 1018.2
20160214052427 55 134 0.0 0.0 0.00 0.00 0.00 1018.2
20160214052327 55 134 0.0 0.0 0.00 0.00 0.00 1018.2
20160214052227 55 134 0.0 0.0 0.00 0.00 0.00 1018.2
20160214052127 55 134 0.0 0.0 0.00 0.00 0.00 1018.0
20160214052027 55 134 0.0 0.0 0.00 0.00 0.00 1018.0
20160214051927 55 134 0.0 0.0 0.00 0.00 0.00 1018.0
20160214051827 55 134 0.0 0.0 0.00 0.00 0.00 1018.0
20160214051727 55 134 0.0 0.0 0.00 0.00 0.00 1018.0
20160214051627 55 134 0.0 0.0 0.00 0.00 0.00 1018.0
20160214051527 54 134 0.0 0.0 0.00 0.00 0.00 1017.9
20160214051427 54 134 0.0 0.0 0.00 0.00 0.00 1018.0
20160214051327 54 134 0.0 0.0 0.00 0.00 0.00 1018.0
20160214051227 54 134 0.0 0.0 0.00 0.00 0.00 1018.0
20160214051027 54 134 0.0 0.0 0.00 0.00 0.00 1018.0
20160214050927 54 134 0.0 0.0 0.00 0.00 0.00 1018.0
20160214050727 54 134 0.0 0.0 0.00 0.00 0.00 1018.0
20160214050627 54 134 0.0 0.0 0.00 0.00 0.00 1018.0
20160214050527 54 134 0.0 0.0 0.00 0.00 0.00 1018.0
20160214050427 54 134 0.0 0.0 0.00 0.00 0.00 1018.0
20160214050227 55 134 0.0 0.0 0.00 0.00 0.00 1018.0
20160214050027 55 134 0.0 0.0 0.00 0.00 0.00 1018.0
20160214045927 55 134 0.0 0.0 0.00 0.00 0.00 1018.0
20160214045827 55 134 0.0 0.0 0.00 0.00 0.00 1018.0
20160214045727 55 134 0.0 0.0 0.00 0.00 0.00 1018.0
20160214045627 55 134 0.0 0.0 0.00 0.00 0.00 1018.0
20160214045527 56 134 0.0 0.0 0.00 0.00 0.00 1018.0
20160214045427 56 134 0.0 0.0 0.00 0.00 0.00 1018.0
20160214045327 56 134 0.0 0.0 0.00 0.00 0.00 1018.0
20160214045127 55 134 0.0 0.0 0.00 0.00 0.00 1018.0
20160214045027 54 134 0.0 0.0 0.00 0.00 0.00 1018.0
20160214044927 55 134 0.0 0.0 0.00 0.00 0.00 1018.0
20160214044827 55 134 0.0 0.0 0.00 0.00 0.00 1018.0
20160214044727 55 134 0.0 0.0 0.00 0.00 0.00 1018.2
20160214044627 55 134 0.0 0.0 0.00 0.00 0.00 1018.2
20160214044527 56 134 0.0 0.0 0.00 0.00 0.00 1018.2
20160214044427 56 134 0.0 0.0 0.00 0.00 0.00 1018.2
20160214044227 56 134 0.0 0.0 0.00 0.00 0.00 1018.3
20160214044027 56 134 0.0 0.0 0.00 0.00 0.00 1018.2
20160214043927 56 134 0.0 0.0 0.00 0.00 0.00 1018.2
20160214043827 56 138 3.0 0.0 0.00 0.00 0.00 1018.2
20160214043727 56 131 5.0 0.0 0.00 0.00 0.00 1018.2
20160214043627 56 136 6.0 0.0 0.00 0.00 0.00 1018.2
20160214043526 56 138 6.0 0.0 0.00 0.00 0.00 1018.2
20160214043427 56 120 7.0 0.0 0.00 0.00 0.00 1018.2
20160214043327 56 125 5.0 0.0 0.00 0.00 0.00 1018.2
20160214043227 56 101 6.0 0.0 0.00 0.00 0.00 1018.2
20160214043127 56 143 5.0 0.0 0.00 0.00 0.00 1018.2
20160214043027 56 134 6.0 0.0 0.00 0.00 0.00 1018.2
20160214042927 56 122 6.0 0.0 0.00 0.00 0.00 1018.2
20160214042827 56 122 7.0 0.0 0.00 0.00 0.00 1018.2
20160214042727 56 135 8.0 0.0 0.00 0.00 0.00 1018.2
20160214042627 56 139 6.0 0.0 0.00 0.00 0.00 1018.2
20160214042527 56 146 8.0 0.0 0.00 0.00 0.00 1018.2
20160214042427 56 125 10.0 0.0 0.00 0.00 0.00 1018.2
20160214042327 56 127 10.0 0.0 0.00 0.00 0.00 1018.2
20160214042127 56 120 8.0 0.0 0.00 0.00 0.00 1018.3
20160214042026 56 98 6.0 0.0 0.00 0.00 0.00 1018.3
20160214041927 56 141 8.0 0.0 0.00 0.00 0.00 1018.3
20160214041827 56 139 6.0 0.0 0.00 0.00 0.00 1018.3
20160214041727 56 146 7.0 0.0 0.00 0.00 0.00 1018.3
20160214041627 56 148 7.0 0.0 0.00 0.00 0.00 1018.3
20160214041526 56 131 9.0 0.0 0.00 0.00 0.00 1018.4
20160214041427 55 122 10.0 0.0 0.00 0.00 0.00 1018.3
20160214041327 56 153 7.0 0.0 0.00 0.00 0.00 1018.3
20160214041227 56 142 7.0 0.0 0.00 0.00 0.00 1018.3
20160214041127 55 129 7.0 0.0 0.00 0.00 0.00 1018.3
20160214041027 56 136 8.0 0.0 0.00 0.00 0.00 1018.3
20160214040927 56 169 7.0 0.0 0.00 0.00 0.00 1018.3
20160214040827 56 153 8.0 0.0 0.00 0.00 0.00 1018.3
20160214040727 56 141 8.0 0.0 0.00 0.00 0.00 1018.3
20160214040427 56 134 11.0 0.0 0.00 0.00 0.00 1018.4
20160214040327 56 146 7.0 0.0 0.00 0.00 0.00 1018.4
20160214040227 56 136 8.0 0.0 0.00 0.00 0.00 1018.3
20160214035927 56 129 7.0 0.0 0.00 0.00 0.00 1018.3
20160214035827 56 132 6.0 0.0 0.00 0.00 0.00 1018.3
20160214035727 56 127 9.0 0.0 0.00 0.00 0.00 1018.3
20160214035627 56 128 9.0 0.0 0.00 0.00 0.00 1018.3
20160214035527 56 108 6.0 0.0 0.00 0.00 0.00 1018.3
20160214035426 55 152 6.0 0.0 0.00 0.00 0.00 1018.3
20160214035327 55 131 6.0 0.0 0.00 0.00 0.00 1018.3
20160214035227 55 120 8.0 0.0 0.00 0.00 0.00 1018.2
20160214035127 55 134 8.0 0.0 0.00 0.00 0.00 1018.2
20160214035027 55 127 8.0 0.0 0.00 0.00 0.00 1018.3
20160214034926 55 124 8.0 0.0 0.00 0.00 0.00 1018.3
20160214034827 55 125 7.0 0.0 0.00 0.00 0.00 1018.3
20160214034727 55 125 7.0 0.0 0.00 0.00 0.00 1018.3
20160214034626 55 118 6.0 0.0 0.00 0.00 0.00 1018.4
20160214034526 55 142 5.0 0.0 0.00 0.00 0.00 1018.4
20160214034427 55 111 6.0 0.0 0.00 0.00 0.00 1018.4
20160214034327 55 100 6.0 0.0 0.00 0.00 0.00 1018.4
20160214034227 54 98 6.0 0.0 0.00 0.00 0.00 1018.4
20160214034029 54 96 6.0 0.0 0.00 0.00 0.00 1018.5
20160214033926 54 108 6.0 0.0 0.00 0.00 0.00 1018.5
20160214033827 55 90 5.0 0.0 0.00 0.00 0.00 1018.5
20160214033727 54 77 0.0 0.0 0.00 0.00 0.00 1018.5
20160214033626 54 77 0.0 0.0 0.00 0.00 0.00 1018.5
20160214033526 54 77 0.0 0.0 0.00 0.00 0.00 1018.5
20160214033426 54 77 5.0 0.0 0.00 0.00 0.00 1018.5
20160214033327 55 60 6.0 0.0 0.00 0.00 0.00 1018.5
20160214033226 55 82 6.0 0.0 0.00 0.00 0.00 1018.5
20160214033126 55 76 6.0 0.0 0.00 0.00 0.00 1018.5
20160214033026 55 65 6.0 0.0 0.00 0.00 0.00 1018.5
20160214032927 55 53 5.0 0.0 0.00 0.00 0.00 1018.6
20160214032826 55 55 0.0 0.0 0.00 0.00 0.00 1018.5
20160214032727 55 55 0.0 0.0 0.00 0.00 0.00 1018.6
20160214032627 55 55 0.0 0.0 0.00 0.00 0.00 1018.5
20160214032526 55 55 0.0 0.0 0.00 0.00 0.00 1018.6
20160214032426 55 55 0.0 0.0 0.00 0.00 0.00 1018.6
20160214032327 56 55 0.0 0.0 0.00 0.00 0.00 1018.7
20160214032226 56 18 7.0 0.0 0.00 0.00 0.00 1018.7
20160214032126 55 34 5.0 0.0 0.00 0.00 0.00 1018.7
20160214032026 56 42 6.0 0.0 0.00 0.00 0.00 1018.7
20160214031926 56 35 7.0 0.0 0.00 0.00 0.00 1018.7
20160214031826 56 18 10.0 0.0 0.00 0.00 0.00 1018.7
20160214031726 56 18 8.0 0.0 0.00 0.00 0.00 1018.7
20160214031526 56 15 9.0 0.0 0.00 0.00 0.00 1018.6
20160214031426 56 13 6.0 0.0 0.00 0.00 0.00 1018.6
20160214031326 56 20 7.0 0.0 0.00 0.00 0.00 1018.6
20160214031026 56 23 0.0 0.0 0.00 0.00 0.00 1018.5
20160214030926 56 52 3.0 0.0 0.00 0.00 0.00 1018.6
20160214030826 56 45 5.0 0.0 0.00 0.00 0.00 1018.6
20160214030726 56 37 5.0 0.0 0.00 0.00 0.00 1018.6
20160214030627 56 3 5.0 0.0 0.00 0.00 0.00 1018.6
20160214030526 56 20 6.0 0.0 0.00 0.00 0.00 1018.6
20160214030426 56 25 5.0 0.0 0.00 0.00 0.00 1018.6
20160214030326 56 31 7.0 0.0 0.00 0.00 0.00 1018.6
20160214030226 56 14 6.0 0.0 0.00 0.00 0.00 1018.6
20160214030026 56 27 5.0 0.0 0.00 0.00 0.00 1018.6
20160214025926 56 53 4.0 0.0 0.00 0.00 0.00 1018.6
20160214025826 56 42 5.0 0.0 0.00 0.00 0.00 1018.5
20160214025726 56 34 6.0 0.0 0.00 0.00 0.00 1018.5
20160214025628 56 28 7.0 0.0 0.00 0.00 0.00 1018.5
20160214025526 56 18 7.0 0.0 0.00 0.00 0.00 1018.5
20160214025426 56 23 5.0 0.0 0.00 0.00 0.00 1018.5
20160214025326 56 13 0.0 0.0 0.00 0.00 0.00 1018.5
20160214025226 56 13 0.0 0.0 0.00 0.00 0.00 1018.5
20160214025126 56 13 0.0 0.0 0.00 0.00 0.00 1018.5
20160214025026 56 13 0.0 0.0 0.00 0.00 0.00 1018.5
20160214024926 56 13 0.0 0.0 0.00 0.00 0.00 1018.5
20160214024826 56 13 0.0 0.0 0.00 0.00 0.00 1018.5
20160214024727 56 13 0.0 0.0 0.00 0.00 0.00 1018.4
20160214024626 56 13 0.0 0.0 0.00 0.00 0.00 1018.4
20160214024526 56 13 0.0 0.0 0.00 0.00 0.00 1018.4
20160214024426 56 13 0.0 0.0 0.00 0.00 0.00 1018.4
20160214024326 56 13 0.0 0.0 0.00 0.00 0.00 1018.4
20160214024226 56 13 0.0 0.0 0.00 0.00 0.00 1018.4
20160214024026 56 20 4.0 0.0 0.00 0.00 0.00 1018.4
20160214023926 55 359 0.0 0.0 0.00 0.00 0.00 1018.4
20160214023826 55 359 0.0 0.0 0.00 0.00 0.00 1018.3
20160214023726 55 359 0.0 0.0 0.00 0.00 0.00 1018.3
20160214023626 55 359 0.0 0.0 0.00 0.00 0.00 1018.3
20160214023526 55 359 0.0 0.0 0.00 0.00 0.00 1018.3
20160214023426 55 359 0.0 0.0 0.00 0.00 0.00 1018.3
20160214023326 55 359 0.0 0.0 0.00 0.00 0.00 1018.3
20160214023226 55 359 0.0 0.0 0.00 0.00 0.00 1018.3
20160214023127 55 359 0.0 0.0 0.00 0.00 0.00 1018.3
20160214023026 55 359 0.0 0.0 0.00 0.00 0.00 1018.3
20160214022926 55 359 0.0 0.0 0.00 0.00 0.00 1018.3
20160214022826 56 359 0.0 0.0 0.00 0.00 0.00 1018.3
20160214022726 56 359 0.0 0.0 0.00 0.00 0.00 1018.3
20160214022626 55 359 0.0 0.0 0.00 0.00 0.00 1018.3
20160214022526 56 359 0.0 0.0 0.00 0.00 0.00 1018.3
20160214022426 56 359 0.0 0.0 0.00 0.00 0.00 1018.3
20160214022326 56 359 0.0 0.0 0.00 0.00 0.00 1018.3
20160214022226 56 359 0.0 0.0 0.00 0.00 0.00 1018.2
20160214022126 56 359 0.0 0.0 0.00 0.00 0.00 1018.3
20160214022026 57 359 0.0 0.0 0.00 0.00 0.00 1018.2
20160214021926 56 359 0.0 0.0 0.00 0.00 0.00 1018.3
20160214021826 56 359 0.0 0.0 0.00 0.00 0.00 1018.3
20160214021726 56 359 0.0 0.0 0.00 0.00 0.00 1018.3
20160214021626 56 359 0.0 0.0 0.00 0.00 0.00 1018.3
20160214021526 56 8 6.0 0.0 0.00 0.00 0.00 1018.2
20160214021426 56 4 5.0 0.0 0.00 0.00 0.00 1018.2
20160214021326 56 4 6.0 0.0 0.00 0.00 0.00 1018.0
20160214021226 56 7 6.0 0.0 0.00 0.00 0.00 1018.0
20160214021127 56 13 0.0 0.0 0.00 0.00 0.00 1018.0
20160214021027 56 13 0.0 0.0 0.00 0.00 0.00 1017.9
20160214020926 56 13 0.0 0.0 0.00 0.00 0.00 1017.9
20160214020826 56 13 0.0 0.0 0.00 0.00 0.00 1017.9
20160214020727 56 13 0.0 0.0 0.00 0.00 0.00 1017.8
20160214020526 55 13 0.0 0.0 0.00 0.00 0.00 1017.7
20160214020426 55 13 0.0 0.0 0.00 0.00 0.00 1017.7
20160214020326 55 13 0.0 0.0 0.00 0.00 0.00 1017.7
20160214020226 55 13 0.0 0.0 0.00 0.00 0.00 1017.7
20160214020026 55 13 0.0 0.0 0.00 0.00 0.00 1017.7
20160214015926 56 13 0.0 0.0 0.00 0.00 0.00 1017.7
20160214015826 56 13 0.0 0.0 0.00 0.00 0.00 1017.7
20160214015726 56 13 0.0 0.0 0.00 0.00 0.00 1017.7
20160214015626 56 13 0.0 0.0 0.00 0.00 0.00 1017.6
20160214015526 56 13 0.0 0.0 0.00 0.00 0.00 1017.6
20160214015326 56 13 0.0 0.0 0.00 0.00 0.00 1017.5